Location: Maccacari
(45.1333°N, 11.1333°E)
Time: 04:23:54
(UTC+00:00)

S-56A Canister/Altair - Pass Details

Date: 20 June 2021
Orbit: 631 x 2501 km, 38.9° (Epoch: 03 August)

Event Time Altitude Azimuth Distance (km) Brightness Sun altitude
Exits shadow 02:29:40 - 190° (S) 2,379 9.6 -8.6°
Reaches altitude 10° 02:31:18 10° 173° (S) 2,015 9.3 -8.4°
Maximum altitude 02:33:05 12° 149° (SSE) 1,860 9.4 -8.2°
Drops below altitude 10° 02:34:51 10° 125° (SE) 2,011 9.8 -8.0°
Sets 02:38:37 0° 94° (E) 3,024 11.3 -7.5°
